Location: Boston
(42.3580°N, 71.0600°W)
Time: 14:29:39
(UTC-04:00)

OTV 5 (USA 277) - Pass Details

Date: 08 October 2017
Orbit: 404 x 417 km, 43.0° (Epoch: 07 September)

Event Time Altitude Azimuth Distance (km) Brightness Sun altitude
Rises 19:48:56 0° 221° (SW) 2,344 ? -18.5°
Reaches altitude 10° 19:51:16 10° 207° (SSW) 1,483 ? -18.9°
Enters shadow 19:52:56 20° 182° (S) 1,017 ? -19.2°
